NOAA 16 DEB, 42401

Orbit data source: Space-Track

NOAA 16 DEB, 42401 is space debris in SSO originally from a launch on Thu, 21 Sep 2000 UTC launched from the Air Force Western Test Range (AFWTR). Debris objects in space refer to the collection of defunct objects orbiting the Earth. Examples of debris include non-operational satellites, rocket bodies, and fragments generated from explosions, collisions, or faulty payload assembly.

Loading next visibility...
Identifier
42401, 2000-055SV
Orbit
SSO
Country
Flag of USUS
Related business
Manufacturer
Unknown
Mission
Spacecraft
Bus & Motor
Unknown
Mass
Unknown
Launch date (UTC)
2000-09-21 (25 years ago)
Launch vehicle
Unknown
Launch site
Air Force Western Test Range (AFWTR)
Object type
Payload
Rocket body
Debris
Shape & HBR
Unknown shape, 0.1 m
Radar Cross Section
Small (<0.1 m²)

Expand to show TLE details & history
Last TLE update: 3 days ago

TLE from 3 days ago
0 NOAA 16 DEB
1 42401U 00055SV  25306.55721319  .00008866  00000-0  20339-2 0  9997
2 42401  98.9624 161.8822 0048358  12.5285 347.7100 14.55068323505414
Epoch: 2025-11-02T13:22Z
TLE epoch observation values (Epoch: 2025-11-02T13:22:23.219Z)
Latitude
-0.00002°
Longitude
-80.78577°
Altitude
678.61 km
Speed
7.535 km/s
True Right ascension
10h 47m 31s
True Declination
0° 00' 00"
Sunlit
Object was in daylight at epoch
Visualization orbit readout
Latitude
Unknown
Longitude
Unknown
Altitude
Unknown
Speed
Unknown
Apparent Right ascension
Unknown
Apparent Declination
Unknown
Sunlit
N/A
Visualization observer readout
Local Sidereal Time
06:47:23
Azimuth
Unknown
Elevation
Unknown
Doppler factor
Unknown
Orbital elements
Apogee altitude
740.526 km
Perigee altitude
672.008 km
Semi-major axis
7,084.404 km
Eccentricity
0.00484
Inclination
98.9624°
RAAN
161.8822°
Arg. of periapsis
12.5285°
True anomaly
347.59134°
Mean anomaly
347.71°
Eccentric anomaly
347.65074°
Mean motion
3.63989 °/min
Orbital period
98.9 mins
BSTAR
0.0020339
Loading maneuver chart data...
Computing Atmospheric mass density...
Loading historical data...
Loading historical data...
Loading historical data...
Loading historical data...
Loading historical data...
Loading historical data...
Loading historical data...

Documentation

Showing up to 5 results
|